TimeEST,TemperatureF,Dew PointF,Humidity,Sea Level PressureIn,VisibilityMPH,Wind Direction,Wind SpeedMPH,Gust SpeedMPH,PrecipitationIn,Events,Conditions,WindDirDegrees,DateUTC
12:53 AM,34.0,33.1,96,29.96,0.2,SSE,4.6,-,0.02,Fog-Rain,Light Rain,150,2012-12-08 05:53:00
1:09 AM,33.8,33.8,100,29.91,0.5,SE,3.5,-,0.01,Fog-Rain,Light Rain,140,2012-12-08 06:09:00
1:18 AM,33.8,33.8,100,29.91,0.5,SE,4.6,-,0.01,Fog-Rain,Light Rain,140,2012-12-08 06:18:00
1:30 AM,33.8,33.8,100,29.91,0.2,SSE,4.6,-,0.01,Fog-Rain,Light Rain,160,2012-12-08 06:30:00
1:33 AM,33.8,33.8,100,29.90,0.5,SSE,5.8,-,0.01,Fog-Rain,Light Rain,150,2012-12-08 06:33:00
1:48 AM,33.8,33.8,100,29.90,0.5,SE,3.5,-,0.02,Fog-Rain,Light Rain,140,2012-12-08 06:48:00
1:53 AM,34.0,33.1,96,29.95,0.5,SE,3.5,-,0.02,Fog-Rain,Light Rain,140,2012-12-08 06:53:00
2:00 AM,33.8,33.8,100,29.89,0.2,SE,3.5,-,0.00,Fog-Rain,Light Rain,130,2012-12-08 07:00:00
2:16 AM,33.8,33.8,100,29.89,0.5,SE,4.6,-,0.01,Fog-Rain,Light Rain,140,2012-12-08 07:16:00
2:39 AM,33.8,33.8,100,29.89,0.2,SE,5.8,-,0.01,Fog-Rain,Light Rain,140,2012-12-08 07:39:00
2:46 AM,33.8,33.8,100,29.89,0.5,SSE,5.8,-,0.02,Fog-Rain,Light Rain,150,2012-12-08 07:46:00
2:53 AM,35.1,33.1,92,29.93,0.5,SSE,5.8,-,0.02,Fog-Rain,Light Rain,150,2012-12-08 07:53:00
3:22 AM,35.6,33.8,93,29.88,0.5,SE,3.5,-,0.01,Fog-Rain,Light Rain,140,2012-12-08 08:22:00
3:53 AM,35.1,34.0,96,29.92,0.8,SE,6.9,-,0.03,Rain,Light Rain,140,2012-12-08 08:53:00
4:14 AM,35.6,33.8,93,29.87,0.5,SE,5.8,-,0.01,Fog-Rain,Light Rain,130,2012-12-08 09:14:00
4:50 AM,35.6,33.8,93,29.86,1.0,SSE,5.8,-,0.02,Rain,Light Rain,150,2012-12-08 09:50:00
4:53 AM,35.1,34.0,96,29.91,1.0,South,4.6,-,0.02,Rain,Light Rain,180,2012-12-08 09:53:00
5:12 AM,35.6,35.6,100,29.86,3.0,Calm,Calm,-,0.02,Rain,Light Rain,0,2012-12-08 10:12:00
5:25 AM,35.6,33.8,93,29.86,1.8,ESE,5.8,-,0.03,Rain,Light Rain,110,2012-12-08 10:25:00
5:35 AM,35.6,33.8,93,29.85,0.5,East,4.6,-,0.04,Fog-Rain,Light Rain,100,2012-12-08 10:35:00
5:53 AM,35.6,33.8,93,29.85,1.2,ESE,4.6,-,N/A,,Overcast,120,2012-12-08 10:53:00
6:20 AM,35.6,33.8,93,29.85,0.5,SE,5.8,-,0.00,Fog-Rain,Light Rain,130,2012-12-08 11:20:00
6:53 AM,35.6,33.8,93,29.85,0.5,SE,4.6,-,N/A,Fog,Fog,140,2012-12-08 11:53:00
7:14 AM,35.6,35.6,100,29.85,0.2,SSE,4.6,-,N/A,Fog,Fog,160,2012-12-08 12:14:00
7:53 AM,36.0,35.1,97,29.89,0.2,SSE,4.6,-,N/A,Fog,Fog,160,2012-12-08 12:53:00
8:53 AM,37.0,36.0,96,29.88,0.2,South,5.8,-,N/A,Fog,Fog,170,2012-12-08 13:53:00
9:07 AM,37.4,35.6,93,29.84,0.5,SSE,5.8,-,N/A,Fog,Fog,160,2012-12-08 14:07:00
9:16 AM,37.4,35.6,93,29.84,0.2,SSE,4.6,-,N/A,Fog,Fog,150,2012-12-08 14:16:00
9:42 AM,37.4,35.6,93,29.84,0.5,SSE,5.8,-,N/A,Fog,Fog,160,2012-12-08 14:42:00
9:51 AM,37.4,37.4,100,29.83,0.2,SSE,6.9,-,N/A,Fog,Fog,160,2012-12-08 14:51:00
9:53 AM,37.9,37.0,97,29.88,0.2,SSE,5.8,-,N/A,Fog,Fog,150,2012-12-08 14:53:00
10:49 AM,39.2,37.4,93,29.82,1.0,South,6.9,-,N/A,,Overcast,180,2012-12-08 15:49:00
10:53 AM,39.9,37.9,93,29.86,1.5,South,5.8,-,N/A,,Overcast,180,2012-12-08 15:53:00
11:23 AM,39.2,39.2,100,29.80,2.0,South,5.8,-,N/A,,Overcast,190,2012-12-08 16:23:00
11:53 AM,41.0,39.9,96,29.83,2.0,South,5.8,-,N/A,,Overcast,190,2012-12-08 16:53:00
12:08 PM,42.8,39.2,87,29.79,4.0,SSW,6.9,-,N/A,,Overcast,200,2012-12-08 17:08:00
12:53 PM,43.0,41.0,93,29.82,6.0,SSW,9.2,-,N/A,,Overcast,210,2012-12-08 17:53:00
1:49 PM,44.6,42.8,93,29.79,8.0,SW,9.2,-,0.01,,Overcast,220,2012-12-08 18:49:00
1:53 PM,45.0,43.0,93,29.82,8.0,SW,9.2,-,0.01,,Overcast,230,2012-12-08 18:53:00
2:23 PM,46.4,42.8,87,29.80,9.0,SW,6.9,-,N/A,,Overcast,220,2012-12-08 19:23:00
2:53 PM,46.9,43.0,86,29.83,10.0,SSW,9.2,-,N/A,,Overcast,210,2012-12-08 19:53:00
3:53 PM,46.9,43.0,86,29.84,10.0,SW,9.2,-,N/A,,Mostly Cloudy,220,2012-12-08 20:53:00
4:53 PM,46.9,43.0,86,29.86,10.0,SW,8.1,-,N/A,,Overcast,220,2012-12-08 21:53:00
5:53 PM,46.0,43.0,89,29.88,10.0,SSW,6.9,-,N/A,,Mostly Cloudy,210,2012-12-08 22:53:00
6:53 PM,45.0,42.1,90,29.91,9.0,SW,6.9,-,N/A,,Overcast,220,2012-12-08 23:53:00
7:14 PM,44.6,42.8,93,29.90,6.0,NNW,9.2,-,N/A,,Overcast,340,2012-12-09 00:14:00
7:23 PM,44.6,42.8,93,29.90,6.0,NW,4.6,-,N/A,,Overcast,320,2012-12-09 00:23:00
7:53 PM,46.0,43.0,89,29.93,10.0,NW,5.8,-,N/A,,Overcast,320,2012-12-09 00:53:00
8:06 PM,46.4,42.8,87,29.91,10.0,WNW,4.6,-,N/A,,Overcast,300,2012-12-09 01:06:00
8:30 PM,44.6,42.8,93,29.92,10.0,West,3.5,-,N/A,,Overcast,270,2012-12-09 01:30:00
8:45 PM,44.6,42.8,93,29.93,6.0,West,3.5,-,N/A,,Overcast,280,2012-12-09 01:45:00
8:53 PM,45.0,43.0,93,29.96,6.0,Calm,Calm,-,N/A,,Overcast,0,2012-12-09 01:53:00
9:53 PM,44.6,41.0,87,29.96,9.0,NNW,11.5,-,N/A,,Overcast,330,2012-12-09 02:53:00
10:53 PM,43.0,39.9,89,30.03,10.0,NW,9.2,-,N/A,,Overcast,320,2012-12-09 03:53:00
11:53 PM,39.9,37.0,89,30.07,10.0,NNW,11.5,20.7,N/A,,Overcast,330,2012-12-09 04:53:00